7 * 24
多渠道服务支持
OPS 5113(NAVSTAR 3)是美国于1978年10月7日发射的导航试验卫星,是GPS全球定位系统早期技术验证阶段的第三颗NAVSTAR卫星。它承担着全球定位导航系统的轨道技术、定位精度验证任务,为后续GPS星座组网和技术优化积累了关键数据,是全球卫星导航系统发展历程中重要的试验节点,为现代全球定位服务奠定了早期技术基础。
美国
(US)
| 数据来源 | 国际轨道数据 |
| 星历时间: | 2026-08-24T11:18:13+0800 1天前 查看轨道信息 |
| 半长轴: | 27202.408km |
| 偏心率: | 0.0102278 |
| 轨道倾角: | 62.876° |
| 近地点辐角 | 227.096° |
| 升交点赤经 | 298.152° |
| 平近点角 | 204.210° |
| 近地点: | 20546.05km |
| 远地点: | 21102.492km |
| 周期: | 744.168分钟 |
| 每日圈数: | 1.935048 |